Temp
61 61 61 61 61 61 61 61 61 61 61 62 62 61 61 61 60 67 75 82 78 72 75 87 87 85 85 82 82 80 75 71 71 72 78 85 83 88 91 88 87 89 86 87 84
61 61 61 61 61 60 60 60 61 61 61 61 61 61 61 61 64 72 80 74 73 74 86 85 82 83 83 80 81 80 74 73 79 80 82 85 81 85 85 86 87 86 83 83 82
60 60 60 60 61 60 60 60 60 61 61 61 61 61 61 62 74 82 76 74 74 77 86 86 84 83 79 80 78 74 75 78 82 83 84 82 83 84 84 83 88 90 89 82 82
60 60 60 60 60 60 60 60 60 61 61 60 60 60 61 66 71 84 76 74 74 84 85 83 82 79 76 76 78 74 78 78 83 84 82 80 83 84 86 90 93 92 89 83 81
59 59 59 59 59 59 59 59 60 60 59 59 60 61 67 74 78 84 77 77 84 85 83 81 80 79 76 77 76 74 79 79 83 82 80 80 81 83 86 92 95 89 86 84 83
58 59 59 59 59 59 59 59 59 59 59 59 60 61 72 72 85 84 83 83 85 85 81 83 82 82 78 76 76 79 78 79 80 81 80 80 84 80 90 90 89 87 87 87 85
58 58 58 58 59 59 59 59 58 58 60 61 61 67 71 79 85 83 83 85 85 86 84 84 85 82 79 76 79 77 75 80 80 81 81 79 79 79 88 86 87 86 86 85 85
58 57 58 58 58 59 59 59 58 60 62 61 63 69 73 84 84 84 83 85 85 85 85 86 85 82 79 79 77 73 74 74 81 80 81 80 76 84 86 83 85 86 86 84 85
58 57 57 58 58 59 58 57 59 62 63 63 69 72 76 82 84 86 86 86 87 85 85 86 84 76 77 74 72 73 69 68 74 79 77 78 77 87 86 83 82 84 85 86 87
57 57 57 57 58 58 57 57 61 63 66 69 72 71 80 78 82 85 86 86 85 84 82 81 78 76 75 75 64 65 66 70 67 78 78 77 79 83 82 83 83 84 85 85 86
57 57 57 57 57 57 60 72 71 72 70 68 70 70 74 82 84 85 87 86 84 81 73 73 74 69 70 70 70 68 66 66 73 76 73 75 76 81 83 83 82 82 84 84 84
57 57 57 57 57 57 64 67 64 65 62 69 69 70 74 79 75 82 88 80 77 71 72 73 69 72 72 70 68 67 66 69 74 74 73 75 76 79 82 80 80 80 82 81 82
56 56 56 56 56 62 62 65 68 66 62 69 72 72 75 78 75 78 84 79 75 70 70 68 72 73 71 72 68 67 68 69 69 74 73 73 74 76 82 84 84 85 84 83 80
56 56 56 55 63 58 67 65 65 65 63 69 73 76 76 77 75 83 84 81 75 70 70 70 74 71 71 70 72 68 72 70 69 69 66 70 64 73 76 80 83 83 84 82 81
55 56 55 55 57 62 68 65 67 66 53 73 74 84 78 77 79 79 85 82 72 72 72 70 71 71 70 73 73 72 73 70 68 68 67 68 68 72 76 75 76 80 81 82 82
55 56 55 56 57 63 63 64 69 60 51 68 75 73 74 76 77 79 80 83 78 73 71 72 75 74 75 75 74 74 72 69 66 68 63 62 64 69 70 70 75 79 79 78 80
55 55 54 57 66 62 65 70 61 56 68 65 68 73 71 69 73 74 72 71 69 64 63 69 72 75 75 73 74 73 70 62 60 60 58 62 63 66 72 75 74 75 76 77 79
53 53 54 57 59 61 66 65 54 60 63 70 68 69 66 69 69 70 68 67 70 68 66 63 62 72 76 72 70 67 68 62 50 54 59 64 62 64 74 78 78 77 77 77 78
52 57 57 61 58 59 67 57 58 61 66 65 68 64 64 67 68 68 65 65 68 69 64 63 63 74 75 75 73 68 66 66 58 56 58 64 66 70 75 73 74 73 74 73 75
53 54 62 62 61 64 63 52 60 65 67 67 61 63 61 63 65 66 64 68 65 69 69 66 61 70 73 76 75 73 70 63 64 52 51 61 59 61 64 64 68 69 70 72 75
54 60 63 63 63 64 58 58 61 69 68 66 63 62 61 61 63 62 61 66 66 69 70 67 64 66 70 67 65 70 67 61 61 58 54 53 61 65 61 63 64 67 70 71 73
53 57 64 64 59 52 57 58 56 67 70 68 67 65 63 62 62 61 61 63 67 67 65 64 62 62 62 67 68 67 63 61 59 55 57 56 58 65 64 65 66 68 69 72 73
56 57 63 63 55 55 57 60 63 66 66 67 65 67 66 61 58 61 62 68 68 66 62 65 60 58 59 65 67 63 64 62 59 57 55 54 59 65 64 64 66 66 68 70 71
54 54 59 58 55 56 57 59 61 67 67 67 65 67 64 60 61 59 62 66 67 65 59 62 58 58 55 58 61 59 63 62 60 55 56 57 59 64 60 61 63 65 67 70 71
52 53 54 52 56 57 58 59 60 61 67 67 64 65 63 58 59 58 61 64 66 63 65 63 57 58 60 60 61 61 61 62 59 61 54 59 57 59 60 61 62 65 66 68 69
52 54 54 55 54 57 53 58 60 60 63 62 62 62 64 60 62 59 61 61 61 66 63 60 57 57 57 62 58 56 60 61 61 60 58 59 58 63 64 64 65 66 66 66 66
50 51 57 48 53 56 57 59 61 64 62 64 65 63 61 62 65 66 66 63 63 61 59 58 57 54 50 55 57 53 58 58 57 59 59 56 61 64 62 62 63 64 64 65 66
MSLP
1021.49 1021.65 1021.36 1020.93 1020.56 1020.19 1019.60 1019.16 1018.65 1018.15 1017.78 1017.30 1016.96 1016.54 1016.12 1015.76 1015.14 1014.68 1013.36 1012.21 1012.09 1011.86 1011.99 1011.74 1011.59 1011.66 1011.69 1011.67 1011.81 1011.77 1010.99 1010.16 1010.11 1009.73 1008.79 1008.50 1008.06 1007.33 1006.81 1006.56 1006.69 1006.91 1007.43 1007.92 1008.92
1021.67 1021.78 1021.37 1020.83 1020.43 1019.99 1019.40 1018.92 1018.45 1017.99 1017.55 1017.11 1016.78 1016.35 1016.01 1015.60 1014.98 1013.49 1011.91 1012.00 1011.90 1011.97 1011.76 1011.52 1011.48 1011.47 1011.45 1011.62 1011.70 1011.35 1010.96 1010.27 1010.13 1009.67 1008.93 1008.48 1008.43 1007.48 1006.88 1006.36 1006.14 1006.67 1007.60 1008.41 1009.05
1021.76 1021.87 1021.26 1020.67 1020.27 1019.72 1019.20 1018.70 1018.28 1017.74 1017.25 1016.92 1016.66 1016.22 1015.85 1015.46 1014.31 1012.43 1011.74 1011.73 1011.90 1012.00 1011.79 1011.63 1011.58 1011.44 1011.37 1011.57 1011.60 1011.47 1010.67 1010.37 1009.64 1009.48 1009.11 1008.59 1007.96 1007.59 1006.77 1005.94 1005.64 1005.74 1006.52 1008.10 1008.72
1021.89 1021.66 1021.08 1020.43 1020.03 1019.47 1018.94 1018.46 1018.04 1017.51 1017.09 1016.77 1016.48 1016.06 1015.55 1015.07 1013.70 1012.18 1011.95 1011.85 1011.94 1011.84 1011.69 1011.62 1011.49 1011.29 1011.34 1011.27 1011.51 1011.18 1010.67 1010.35 1009.46 1009.16 1008.92 1008.33 1007.84 1007.08 1006.34 1005.30 1005.26 1005.59 1006.32 1007.38 1008.02
1021.92 1021.50 1020.89 1020.25 1019.83 1019.22 1018.61 1018.03 1017.60 1017.11 1016.73 1016.51 1016.19 1015.83 1015.33 1014.32 1012.62 1012.04 1012.05 1012.03 1011.92 1011.82 1011.57 1011.45 1011.28 1011.26 1011.12 1011.31 1011.43 1011.16 1010.41 1010.02 1009.30 1009.09 1008.84 1008.53 1007.52 1007.12 1005.85 1005.60 1005.39 1005.72 1006.12 1006.72 1007.44
1021.76 1021.31 1020.59 1020.17 1019.55 1018.94 1018.22 1017.63 1017.15 1016.61 1016.29 1016.12 1015.91 1015.72 1014.94 1013.43 1011.87 1011.88 1011.94 1012.00 1011.78 1011.62 1011.67 1011.49 1011.28 1011.29 1011.22 1011.33 1011.24 1010.87 1010.33 1009.57 1009.03 1008.69 1008.37 1007.95 1007.14 1007.10 1005.47 1005.52 1005.23 1005.61 1005.45 1006.08 1006.72
1021.29 1021.18 1020.63 1019.97 1019.18 1018.42 1017.66 1017.10 1016.63 1016.01 1015.67 1015.62 1015.67 1015.28 1014.47 1012.49 1011.72 1011.97 1011.92 1011.71 1011.66 1011.53 1011.39 1011.49 1011.41 1011.33 1011.32 1011.18 1011.29 1010.87 1010.05 1008.99 1008.75 1008.36 1007.90 1007.94 1006.97 1006.48 1005.66 1005.48 1005.15 1005.21 1005.47 1005.93 1006.32
1021.59 1021.34 1020.30 1019.68 1018.76 1017.89 1017.17 1016.69 1016.14 1015.62 1015.41 1015.46 1015.50 1014.98 1013.27 1011.78 1011.72 1011.71 1011.73 1011.59 1011.52 1011.62 1011.57 1011.45 1011.46 1011.38 1011.39 1011.45 1011.16 1010.62 1010.13 1008.78 1008.40 1008.25 1007.90 1007.74 1006.50 1005.90 1006.09 1005.71 1005.31 1005.38 1005.71 1005.99 1006.02
1021.62 1021.00 1020.27 1019.27 1018.53 1017.37 1016.76 1016.30 1015.73 1015.50 1015.34 1015.54 1015.29 1014.38 1012.36 1011.55 1011.55 1011.31 1011.33 1011.12 1011.14 1011.41 1011.48 1011.52 1011.46 1011.68 1011.65 1011.16 1010.78 1010.57 1009.85 1009.44 1008.64 1008.49 1008.20 1007.57 1006.45 1005.65 1005.94 1005.72 1005.59 1005.54 1005.55 1005.62 1005.76
1021.38 1020.91 1020.10 1019.27 1018.33 1017.02 1016.35 1016.01 1015.61 1015.51 1015.31 1015.30 1014.80 1014.31 1012.16 1011.95 1011.52 1011.18 1011.21 1011.09 1010.94 1011.23 1011.35 1011.46 1011.64 1011.57 1011.55 1010.98 1010.75 1010.65 1010.17 1009.64 1009.22 1008.51 1007.98 1007.32 1006.53 1006.12 1006.19 1005.95 1005.70 1005.60 1005.59 1005.48 1005.26
1021.64 1020.87 1019.92 1019.14 1018.06 1017.07 1016.17 1015.61 1016.07 1015.72 1015.11 1015.01 1014.67 1013.81 1012.72 1011.99 1011.57 1010.96 1010.92 1010.92 1011.04 1011.26 1011.49 1011.89 1011.48 1011.33 1011.39 1011.35 1011.23 1010.96 1010.55 1010.01 1009.06 1008.81 1008.32 1007.36 1006.90 1006.20 1006.22 1005.93 1005.81 1005.68 1005.63 1005.49 1005.01
1021.48 1020.70 1019.92 1019.11 1018.13 1017.23 1016.70 1017.05 1018.42 1018.60 1016.56 1014.61 1014.17 1013.66 1012.86 1012.50 1011.76 1010.96 1010.79 1010.95 1011.13 1011.45 1011.77 1011.81 1011.40 1011.51 1011.43 1011.27 1011.19 1010.91 1010.35 1009.65 1009.16 1008.96 1008.61 1007.62 1006.76 1006.56 1006.25 1006.32 1006.32 1006.02 1005.69 1005.54 1005.09
1021.45 1020.86 1020.01 1018.95 1017.96 1017.73 1018.28 1018.34 1018.43 1018.30 1017.03 1014.32 1013.37 1012.90 1012.52 1012.35 1011.64 1011.04 1010.84 1011.05 1011.25 1011.50 1011.63 1011.51 1011.41 1011.47 1011.20 1010.76 1010.67 1010.50 1010.10 1009.68 1009.45 1008.98 1008.83 1008.06 1007.02 1006.80 1006.34 1006.20 1005.90 1005.73 1005.81 1005.50 1005.21
1021.33 1021.09 1020.23 1019.11 1018.26 1019.24 1018.33 1018.41 1018.21 1018.04 1016.21 1013.81 1012.75 1012.24 1012.33 1012.00 1011.47 1011.10 1010.96 1011.02 1011.32 1011.53 1011.75 1011.63 1011.41 1011.24 1010.87 1010.42 1010.23 1009.91 1009.86 1009.85 1009.68 1009.39 1008.93 1009.06 1007.68 1007.13 1006.83 1006.10 1005.83 1006.06 1005.89 1005.82 1005.50
1021.49 1021.22 1020.67 1020.31 1019.99 1019.16 1018.21 1018.07 1017.73 1017.65 1015.11 1013.16 1012.10 1011.70 1011.84 1011.67 1011.32 1011.12 1011.03 1010.88 1011.27 1011.52 1011.78 1011.50 1011.17 1010.86 1010.35 1010.03 1010.06 1009.75 1009.86 1009.98 1009.99 1009.75 1009.62 1009.26 1008.45 1007.58 1007.26 1006.82 1006.87 1006.57 1006.46 1006.49 1006.09
1021.28 1021.18 1020.99 1020.49 1020.20 1018.78 1018.28 1017.79 1017.21 1016.38 1014.17 1012.55 1011.84 1011.64 1011.55 1011.47 1011.27 1011.30 1011.13 1011.10 1011.62 1011.55 1011.65 1011.41 1011.33 1010.96 1010.22 1010.01 1009.98 1009.98 1009.98 1010.12 1010.37 1010.01 1009.62 1010.06 1009.45 1008.27 1008.51 1008.67 1007.83 1007.76 1007.32 1007.15 1006.54
1021.12 1021.04 1021.00 1020.55 1019.36 1018.76 1018.03 1017.25 1016.50 1014.81 1013.79 1012.95 1012.18 1011.72 1011.72 1011.83 1011.66 1011.57 1011.64 1011.81 1011.97 1011.83 1011.73 1011.39 1011.01 1010.63 1010.47 1009.97 1010.03 1009.92 1009.90 1009.91 1009.99 1009.96 1010.12 1010.53 1009.93 1009.86 1009.73 1009.48 1009.37 1008.92 1008.73 1008.35 1007.77
1020.92 1020.59 1020.13 1019.54 1019.15 1018.93 1018.06 1017.05 1015.68 1014.75 1013.74 1013.11 1012.61 1012.33 1012.32 1012.54 1012.57 1012.36 1012.40 1012.65 1012.83 1012.69 1012.37 1011.87 1011.18 1010.85 1010.48 1010.42 1010.30 1010.46 1010.55 1010.70 1010.83 1010.87 1010.64 1010.66 1010.03 1011.01 1010.70 1010.35 1010.19 1009.90 1009.42 1008.67 1008.30
1020.78 1020.03 1019.77 1018.98 1019.04 1019.10 1018.05 1016.67 1015.53 1014.70 1014.05 1013.40 1012.97 1012.87 1013.06 1013.16 1013.05 1013.07 1013.44 1013.63 1013.57 1013.33 1013.07 1012.55 1011.93 1011.37 1011.00 1010.84 1010.94 1011.05 1011.39 1012.16 1011.93 1012.38 1011.67 1010.80 1010.59 1011.16 1010.92 1010.61 1010.43 1010.47 1010.23 1009.82 1009.43
1021.22 1020.26 1019.23 1018.94 1019.00 1018.66 1017.63 1016.70 1015.72 1014.89 1014.15 1013.68 1013.50 1013.76 1013.66 1013.77 1013.60 1013.63 1014.04 1014.45 1014.21 1014.01 1013.71 1013.29 1012.61 1011.83 1011.48 1011.29 1011.34 1011.26 1012.42 1012.48 1012.29 1012.13 1011.79 1011.35 1011.43 1011.95 1012.26 1012.51 1012.30 1011.73 1011.50 1011.15 1010.40
1021.21 1019.94 1019.15 1019.03 1019.06 1018.41 1017.42 1016.67 1015.79 1014.78 1014.33 1013.90 1013.94 1014.14 1014.53 1014.59 1014.54 1014.63 1015.10 1015.12 1015.07 1014.47 1014.28 1014.04 1013.64 1012.70 1012.25 1012.35 1012.35 1012.36 1012.54 1013.22 1013.44 1013.32 1012.64 1012.26 1012.34 1014.06 1014.36 1014.39 1013.97 1013.59 1013.10 1012.38 1011.62
1021.02 1020.03 1019.35 1019.22 1019.12 1018.89 1017.61 1016.78 1016.03 1014.91 1014.32 1014.16 1014.36 1014.60 1014.95 1015.26 1015.27 1015.36 1015.53 1015.78 1015.76 1015.38 1014.99 1015.13 1014.51 1013.54 1013.50 1013.71 1013.72 1013.49 1013.74 1013.94 1013.68 1013.83 1013.96 1013.96 1014.04 1015.18 1015.42 1015.36 1014.99 1014.44 1014.05 1013.41 1012.77
1020.69 1020.22 1019.46 1019.25 1018.85 1018.44 1017.70 1016.66 1015.93 1015.13 1014.75 1014.52 1014.83 1015.07 1015.47 1015.93 1016.23 1016.17 1016.18 1016.36 1016.18 1015.96 1016.28 1015.87 1015.39 1014.65 1014.29 1014.27 1014.15 1014.13 1014.41 1014.68 1014.83 1014.73 1014.06 1014.02 1014.15 1015.57 1015.96 1015.82 1015.65 1015.19 1014.66 1014.01 1013.46
1021.00 1020.43 1019.86 1019.42 1019.34 1018.28 1017.53 1016.67 1015.92 1015.39 1015.13 1015.04 1015.40 1015.55 1015.94 1016.41 1016.59 1016.66 1016.67 1016.74 1016.70 1016.78 1017.00 1016.59 1016.32 1015.82 1015.28 1015.01 1015.14 1014.72 1014.68 1015.01 1015.09 1014.86 1014.37 1014.26 1014.38 1014.98 1015.88 1016.06 1016.07 1015.70 1015.22 1014.54 1013.83
1021.08 1020.43 1020.00 1019.35 1018.90 1018.27 1017.63 1016.93 1016.03 1015.66 1015.51 1015.47 1015.84 1015.96 1016.19 1016.71 1016.94 1017.03 1017.15 1017.11 1017.13 1017.16 1017.11 1017.05 1016.78 1016.65 1016.02 1015.86 1015.62 1015.18 1014.87 1015.03 1015.11 1014.98 1014.98 1014.49 1014.98 1015.58 1016.15 1016.38 1016.44 1016.25 1015.76 1015.06 1014.40
1021.15 1020.38 1020.11 1019.30 1018.79 1018.20 1017.76 1016.91 1016.27 1016.26 1016.07 1016.05 1016.10 1016.66 1016.71 1016.86 1017.11 1017.23 1017.44 1017.58 1017.57 1017.51 1017.65 1017.93 1017.58 1017.21 1016.31 1016.05 1016.12 1015.61 1015.20 1015.24 1015.15 1015.29 1015.34 1015.26 1015.11 1015.86 1016.39 1016.66 1016.40 1016.12 1015.82 1015.41 1015.02
1021.21 1020.71 1019.58 1019.53 1018.87 1018.18 1017.54 1017.00 1016.57 1016.34 1016.92 1016.62 1016.60 1016.98 1017.34 1017.56 1017.62 1017.76 1017.88 1018.09 1018.27 1018.34 1018.33 1018.41 1018.12 1017.85 1016.95 1016.92 1016.41 1015.61 1015.47 1015.49 1015.71 1015.81 1015.70 1015.38 1015.50 1016.03 1016.38 1016.51 1016.43 1016.27 1016.09 1015.74 1015.30
Wind_Speed
16 15 14 15 15 15 16 16 16 16 16 17 17 15 14 15 13 2 4 1 2 5 4 2 2 4 2 3 2 1 5 8 4 4 3 6 8 5 6 7 3 4 3 3 14
15 15 15 15 16 15 16 17 17 17 16 17 17 14 13 14 3 3 4 3 6 4 1 2 2 2 3 2 2 2 4 5 3 3 8 13 6 12 5 5 6 6 3 9 16
15 15 16 17 17 16 16 17 17 18 17 17 16 14 12 8 3 3 10 8 7 3 2 2 3 1 2 0 2 3 4 2 7 11 11 7 8 3 4 6 11 7 8 13 14
14 16 17 18 19 18 18 18 18 18 17 16 15 12 11 3 3 3 4 6 6 3 2 4 3 3 2 2 2 3 5 5 6 4 5 6 5 6 9 12 7 8 8 15 16
15 17 18 19 20 19 18 18 19 18 16 15 13 10 1 2 3 2 4 5 4 2 2 3 2 2 2 1 2 3 4 4 10 11 10 7 12 10 14 13 11 4 11 15 17
15 18 19 20 20 19 19 19 19 17 15 12 9 6 1 1 3 4 4 3 2 2 2 2 2 1 3 1 2 2 9 12 8 6 5 6 8 2 9 11 12 10 14 15 18
16 18 20 20 20 21 20 20 19 17 12 7 5 2 2 4 2 3 2 2 2 1 1 2 2 1 1 1 2 3 8 6 2 3 3 2 2 4 13 9 8 12 11 13 16
15 17 20 21 22 23 22 21 18 11 2 3 5 2 4 2 1 7 4 3 4 3 2 2 3 3 1 1 2 2 1 3 5 10 3 4 8 4 9 5 8 10 8 11 16
16 18 20 23 24 25 23 21 8 2 6 6 2 1 1 2 1 2 3 1 3 4 1 4 2 3 1 2 2 5 3 5 7 4 6 5 9 15 10 5 8 9 10 12 13
17 19 20 23 25 26 24 7 1 1 2 4 2 3 1 4 5 4 1 1 2 4 3 3 4 2 2 4 4 4 3 4 5 5 6 7 12 12 9 8 7 8 9 13 15
18 19 21 24 26 25 12 1 5 1 5 2 5 4 4 8 4 1 1 3 2 6 2 3 1 4 4 3 2 3 4 5 5 3 4 6 8 10 11 11 9 9 8 10 14
18 20 22 24 25 19 4 7 3 4 8 2 6 7 6 2 3 2 2 2 3 2 0 1 2 1 4 3 4 4 5 3 7 3 4 8 7 8 12 11 8 6 8 11 15
16 19 21 26 21 5 5 5 5 7 3 6 3 3 2 5 2 2 2 2 2 2 1 0 2 3 2 6 1 2 3 4 5 6 3 10 4 10 12 7 12 15 13 12 13
15 17 19 30 3 5 1 4 6 6 2 4 1 2 3 2 1 1 1 2 2 2 2 2 2 3 5 2 1 2 3 3 5 6 4 7 3 7 10 11 13 16 17 18 15
13 15 14 10 4 4 5 10 2 3 3 2 3 3 3 1 1 5 1 2 2 2 2 1 3 5 4 1 3 3 2 3 2 1 1 6 1 7 7 15 20 21 20 19 18
14 14 15 1 2 5 9 10 3 3 3 3 3 2 1 2 3 2 1 4 1 1 1 4 2 3 3 3 3 2 2 3 2 1 1 3 4 10 11 15 16 18 21 22 22
15 15 11 2 3 7 8 2 1 2 2 4 2 1 4 5 4 2 2 3 4 4 6 4 1 3 2 3 2 2 3 4 2 3 4 2 5 14 11 15 12 16 17 19 20
16 16 3 4 4 8 3 1 2 1 3 2 3 4 4 7 4 4 3 4 5 2 1 4 3 9 10 4 3 5 3 2 3 4 6 1 1 7 10 12 13 15 17 20 22
16 2 3 2 1 2 1 2 2 1 3 4 2 4 4 2 2 2 6 5 3 4 2 2 2 3 6 6 4 3 4 3 4 1 3 3 1 6 17 21 21 20 20 21 21
5 4 2 4 3 1 1 1 1 3 3 1 3 2 2 6 2 3 4 5 6 5 3 1 2 1 3 3 10 5 4 2 1 4 7 3 3 5 17 17 17 20 20 20 20
2 1 5 2 2 2 2 3 3 4 3 2 3 4 4 3 4 3 4 2 7 6 3 2 2 1 3 6 4 0 2 5 1 3 4 5 2 7 7 10 12 14 15 17 19
1 1 3 3 1 1 2 4 2 3 2 4 4 4 3 4 4 3 3 4 11 3 3 4 0 1 3 5 1 3 3 2 3 1 1 2 1 7 6 9 10 12 13 15 16
1 1 1 2 3 2 2 2 2 3 4 2 3 3 3 3 2 2 2 3 10 6 3 4 2 3 3 4 2 2 2 3 3 2 8 7 1 8 9 11 12 13 14 14 15
2 3 1 2 1 2 2 2 3 1 1 4 4 3 3 3 6 3 2 5 7 5 5 2 2 3 6 4 3 5 8 1 2 4 4 8 13 8 10 9 10 11 12 14 15
1 2 1 4 4 3 1 0 3 3 2 4 4 4 4 3 2 2 1 2 2 8 3 3 2 2 4 5 5 9 12 8 9 10 8 13 7 4 1 5 7 6 8 12 15
3 3 1 2 1 6 0 3 4 4 1 3 7 3 3 4 1 3 1 2 2 3 4 4 1 2 9 5 3 9 13 13 14 11 10 8 9 3 0 4 5 8 10 12 14
2 1 2 1 3 5 4 4 5 7 3 3 9 6 5 4 3 2 1 1 2 3 2 2 2 1 4 5 7 10 3 4 2 2 3 6 3 6 3 5 5 7 9 11 11
Wind_Direction
16 0 354 352 343 337 341 335 335 332 326 325 327 332 335 333 315 195 254 214 218 215 237 155 87 51 89 104 87 171 212 245 231 216 299 309 319 317 296 276 230 185 237 107 137
11 352 350 348 340 334 336 334 330 327 323 324 325 331 334 338 309 279 276 198 217 42 151 103 100 64 99 93 99 200 233 239 211 236 284 300 277 310 288 277 249 207 144 143 150
7 345 348 346 337 331 329 331 324 323 323 322 320 325 326 323 287 31 340 195 220 209 66 88 101 70 98 68 130 145 254 243 260 248 268 270 277 230 267 263 254 260 214 168 164
357 346 345 343 334 328 325 324 317 318 316 316 314 318 319 274 120 24 34 135 168 170 129 111 115 112 105 119 139 264 256 240 276 259 269 275 297 251 232 250 259 255 189 170 178
351 345 342 339 328 323 321 318 313 313 311 307 307 314 305 337 257 72 119 137 134 148 103 128 109 120 106 110 183 222 278 230 266 289 274 273 265 278 272 273 271 245 184 191 190
350 343 340 331 325 320 319 316 311 308 305 294 288 287 63 304 112 30 160 173 146 129 114 159 95 135 104 160 248 259 272 280 291 293 261 282 314 230 312 323 255 229 211 201 195
353 339 333 326 325 321 321 320 312 310 305 276 246 216 119 244 115 19 205 227 193 196 11 202 160 233 153 304 325 301 300 304 152 322 295 336 243 237 329 317 270 236 231 206 208
343 330 334 327 326 322 326 318 313 310 354 163 188 183 253 242 185 280 180 239 229 252 252 303 177 101 353 308 317 332 260 359 9 342 74 317 353 314 318 300 277 278 257 231 221
338 334 331 332 325 324 327 316 305 71 113 151 187 321 98 298 267 3 218 184 152 107 133 86 73 53 124 356 130 27 24 352 323 4 314 355 346 341 354 1 290 279 262 252 246
343 333 332 332 325 328 325 296 206 220 175 221 237 211 1 340 302 329 182 273 79 116 116 55 47 16 73 3 45 336 339 315 283 336 322 316 340 355 356 325 303 305 273 259 259
338 334 336 331 329 330 337 189 1 22 41 330 310 285 299 315 264 184 134 131 61 57 57 32 125 62 337 245 242 256 264 291 293 289 296 335 329 13 19 9 338 316 301 276 267
338 340 336 332 330 325 311 66 77 309 316 300 261 270 272 294 309 9 179 108 79 82 272 161 117 174 300 235 218 224 266 264 284 273 271 346 338 341 4 15 10 344 325 305 298
336 336 337 331 325 23 359 83 324 177 272 300 223 257 328 180 196 267 177 126 95 135 113 70 350 286 273 334 236 178 283 322 316 326 139 327 89 9 8 15 25 33 11 351 332
336 335 342 328 64 343 310 341 325 196 338 10 65 134 130 223 105 288 250 118 76 77 147 285 308 295 300 275 212 346 245 257 303 304 20 351 71 37 342 339 18 15 7 1 350
328 332 345 354 314 300 330 333 356 202 89 353 76 117 123 316 333 35 336 72 91 102 260 100 275 326 321 318 205 305 52 47 41 61 253 23 293 7 351 359 355 353 357 5 8
324 328 339 243 277 270 314 318 187 251 84 49 102 122 155 36 42 89 99 62 64 111 333 275 326 264 292 305 243 30 233 71 109 23 123 349 311 52 27 344 347 6 6 6 6
317 318 311 275 288 330 319 307 205 55 312 15 32 89 86 13 55 42 59 48 13 349 16 325 1 292 298 306 121 175 22 357 28 22 350 221 260 43 359 14 358 357 10 13 12
316 313 223 234 306 333 311 216 98 57 19 357 19 68 68 8 48 22 83 73 45 11 321 352 133 2 340 25 5 41 8 27 322 335 343 241 33 45 4 10 21 22 11 16 16
315 313 272 310 306 187 224 108 134 184 324 357 78 61 56 49 55 85 48 37 21 357 317 327 98 306 41 41 311 96 49 20 113 111 257 346 146 208 8 13 11 13 12 8 6
328 322 338 7 127 278 90 174 214 245 328 100 94 7 72 11 75 68 32 9 345 17 258 129 280 342 349 257 56 50 114 248 97 281 298 256 260 36 2 359 5 9 8 5 4
313 257 11 19 266 48 171 207 261 267 253 46 108 98 68 32 39 60 14 78 353 339 50 360 274 56 261 24 335 32 85 55 55 335 300 296 84 20 15 7 10 11 9 8 7
340 160 31 299 96 6 181 198 309 319 16 82 90 83 78 39 52 88 100 9 348 293 33 13 7 350 5 16 314 58 77 53 329 240 168 273 259 33 44 34 22 21 17 14 13
119 26 57 290 174 192 257 257 265 16 24 82 91 48 53 66 99 55 57 36 8 34 34 356 39 312 163 194 154 38 51 81 71 314 238 273 302 54 52 45 29 20 17 18 17
174 138 46 61 16 153 176 180 149 20 63 69 100 99 108 69 37 108 52 14 357 38 41 193 87 284 280 328 328 296 299 70 237 255 303 265 299 342 25 27 20 14 18 20 24
350 164 352 171 202 170 193 58 142 123 66 40 68 82 123 110 72 75 30 16 33 0 38 33 314 282 266 247 248 266 276 284 250 266 268 305 291 300 328 355 2 4 19 24 23
173 174 143 98 111 166 288 192 149 134 30 80 123 125 95 122 112 174 141 13 347 353 28 9 284 306 281 277 258 276 277 279 276 274 261 259 273 205 335 340 357 18 16 16 11
141 320 278 121 133 164 191 175 176 142 64 46 137 120 104 114 114 80 226 6 349 325 350 318 196 274 270 5 315 279 40 351 136 223 281 265 329 169 256 317 347 358 357 355 351